KB4SHP Weather Reports


time (UTC)temp
C
wind
direction
speed
KPH
gust
KPH
rain 1hr
cm
rain 24hr
cm
rain mn
cm
humidity
%
barometer
mb
20260510201503 28 276 1.6 12.9 0.00 0.00 0.00 29 1014.8
20260510200007 28 207 3.2 8.0 0.00 0.00 0.00 31 1014.9
20260510191505 28 285 3.2 6.4 0.00 0.00 0.00 31 1015.3
20260510190004 28 307 1.6 6.4 0.00 0.00 0.00 30 1015.5
20260510184503 28 240 1.6 8.0 0.00 0.00 0.00 28 1015.6
20260510174503 27 320 1.6 6.4 0.00 0.00 0.00 34 1015.9
20260510173004 27 242 3.2 16.1 0.00 0.00 0.00 33 1015.9
20260510164504 27 227 1.6 4.8 0.00 0.00 0.00 31 1016.3
20260510163003 26 155 1.6 4.8 0.00 0.00 0.00 33 1016.4
20260510161503 26 247 1.6 6.4 0.00 0.00 0.00 35 1016.5
20260510160003 25 68 0.0 6.4 0.00 0.00 0.00 39 1016.5
20260510154504 25 34 3.2 12.9 0.00 0.00 0.00 42 1016.8
20260510153004 24 302 3.2 11.3 0.00 0.00 0.00 45 1016.9
20260510150005 23 300 1.6 8.0 0.00 0.00 0.00 48 1016.8
20260510144503 22 11 4.8 9.7 0.00 0.00 0.00 52 1017.0
20260510140005 21 29 0.0 3.2 0.00 0.00 0.00 64 1017.0
20260510134503 20 46 0.0 4.8 0.00 0.00 0.00 63 1017.1
20260510133003 19 37 0.0 3.2 0.00 0.00 0.00 69 1017.1
20260510131503 18 291 0.0 1.6 0.00 0.00 0.00 72 1017.0
20260510130003 17 313 0.0 1.6 0.00 0.00 0.00 76 1017.0
20260510124503 16 1 0.0 1.6 0.00 0.00 0.00 79 1016.9
20260510123002 15 297 0.0 1.6 0.00 0.00 0.00 84 1016.8
20260510121504 13 291 0.0 1.6 0.00 0.00 0.00 94 1016.6
20260510120003 12 343 0.0 0.0 0.00 0.00 0.00 94 1016.2
20260510114502 11 342 0.0 0.0 0.00 0.00 0.00 94 1015.9
20260510113002 10 342 0.0 0.0 0.00 0.00 0.00 93 1015.7
20260510111502 9 342 0.0 0.0 0.00 0.00 0.00 93 1015.6
20260510110005 9 342 0.0 0.0 0.00 0.00 0.00 93 1015.5
20260510104504 9 342 0.0 0.0 0.00 0.00 0.00 92 1015.3
20260510103003 9 342 0.0 0.0 0.00 0.00 0.00 92 1015.0
20260510093003 10 20 0.0 0.0 0.00 0.00 0.00 91 1014.7
20260510091503 10 20 0.0 0.0 0.00 0.00 0.00 91 1014.5
20260510090001 11 23 0.0 0.0 0.00 0.00 0.00 91 1014.4
20260510084502 11 23 0.0 0.0 0.00 0.00 0.00 91 1013.9
20260510083002 11 23 0.0 0.0 0.00 0.00 0.00 90 1013.7
20260510081502 12 23 0.0 0.0 0.00 0.00 0.00 91 1013.6
20260510080005 12 23 0.0 0.0 0.00 0.00 0.00 90 1013.5
20260510074504 12 23 0.0 0.0 0.00 0.00 0.00 89 1013.5
20260510073004 13 23 0.0 0.0 0.00 0.00 0.00 89 1013.3
20260510071504 13 22 0.0 1.6 0.00 0.00 0.00 91 1013.0
20260510070003 13 27 0.0 0.0 0.00 0.00 0.00 91 1013.1
20260510064502 13 120 0.0 0.0 0.00 0.00 0.00 90 1013.4
20260510063002 13 120 0.0 0.0 0.00 0.00 0.00 89 1013.4
20260510061502 13 120 0.0 0.0 0.00 0.00 0.00 89 1013.4
20260510060002 14 120 0.0 0.0 0.00 0.00 0.00 88 1013.4
20260510054502 15 120 0.0 0.0 0.00 0.00 0.00 88 1013.5
20260510053001 15 224 0.0 0.0 0.00 0.00 0.00 85 1013.4
20260510051502 16 276 0.0 1.6 0.00 0.00 0.00 85 1013.3
20260510050007 16 239 0.0 1.6 0.00 0.00 0.00 85 1013.4
20260510044503 16 288 0.0 1.6 0.00 0.00 0.00 84 1013.6
20260510043003 16 243 0.0 1.6 0.00 0.00 0.00 85 1013.5
20260510041502 16 271 0.0 1.6 0.00 0.00 0.00 87 1013.7
20260510040003 15 289 0.0 1.6 0.00 0.00 0.00 88 1013.6
20260510034504 15 212 0.0 0.0 0.00 0.00 0.00 88 1013.7
20260510033004 15 212 0.0 0.0 0.00 0.00 0.00 86 1013.6
20260510031503 16 212 0.0 0.0 0.00 0.00 0.00 85 1013.5
20260510023005 17 212 0.0 0.0 0.00 0.00 0.00 82 1013.1
20260510021505 17 211 0.0 1.6 0.00 0.00 0.00 81 1013.0
20260510020004 18 212 0.0 0.0 0.00 0.00 0.00 79 1013.0
20260510013004 18 207 0.0 1.6 0.00 0.00 0.00 78 1012.2
20260510011505 18 208 0.0 1.6 0.00 0.00 0.00 77 1011.9
20260510010004 19 201 0.0 0.0 0.00 0.00 0.00 76 1011.7
20260510004504 20 201 0.0 0.0 0.00 0.00 0.00 74 1011.4
20260510003003 20 195 0.0 0.0 0.00 0.00 0.00 72 1011.3
20260510001503 21 195 0.0 0.0 0.00 0.00 0.00 70 1011.2
20260510000006 21 195 0.0 0.0 0.00 0.00 0.00 67 1011.1
20260509234503 22 190 0.0 0.0 0.00 0.00 0.00 65 1010.9
20260509233004 22 192 0.0 1.6 0.00 0.00 0.00 63 1010.7
20260509231503 22 179 0.0 1.6 0.00 0.00 0.00 61 1010.6
20260509230004 23 200 0.0 3.2 0.00 0.00 0.00 60 1010.4
20260509224504 23 188 0.0 0.0 0.00 0.00 0.00 60 1010.5
20260509223003 23 184 0.0 3.2 0.00 0.00 0.00 59 1010.3
20260509221505 23 213 1.6 3.2 0.00 0.00 0.00 60 1010.5
20260509220006 23 196 1.6 4.8 0.00 0.00 0.00 58 1010.2
20260509213003 23 222 1.6 6.4 0.00 0.00 0.00 58 1010.3
20260509204502 23 171 0.0 3.2 0.00 0.00 0.00 56 1010.0
20260509203002 23 191 1.6 4.8 0.00 0.00 0.00 54 1009.8